SJ-21 AKM, 49382

Orbit data source: Space-Track

SJ-21 AKM, 49382 is space debris in GEO originally from a launch on Sun, 24 Oct 2021 UTC via a CHANG ZHENG 3B launch vehicle from the Xichang Space Center, China (XSC). Debris objects in space refer to the collection of defunct objects orbiting the Earth. Examples of debris include non-operational satellites, rocket bodies, and fragments generated from explosions, collisions, or faulty payload assembly.

Not visible in the next 10 days
Identifier
49382, 2021-094C
Orbit
GEO
Country
Flag of CNCN / PRC
Related business
Manufacturer
SAST?
Mission
Defense Technology
Bus & Motor
SJ21, Unknown motor
Mass
~200 kg wet, ~200 kg dry
Launch date (UTC)
2021-10-24 (5 years ago)
Launch vehicle
CHANG ZHENG 3B
Launch site
Xichang Space Center, China (XSC)
Object type
Payload
Rocket body
Debris
Shape & HBR
Box, 0.5 m
Radar Cross Section
1.500 m², Large (>1 m²)

Expand to show TLE details & history
Last TLE update: 20 hours ago

TLE from 20 hours ago
0 SJ-21 AKM
1 49382U 21094C   26119.62618765 -.00000304  00000-0  00000+0 0  9999
2 49382  11.1937  40.1306 0002040 172.7757  19.0290  0.99220193 17000
Epoch: 2026-04-29T15:01Z
TLE epoch observation values (Epoch: 2026-04-29T15:01:42.612Z)
Latitude
-2.29587°
Longitude
148.72603°
Altitude
36,075.626 km
Speed
3.064 km/s
True Right ascension
15h 26m 57s
True Declination
-2° 17' 37"
Sunlit
Object was in daylight at epoch
Visualization orbit readout
Latitude
Unknown
Longitude
Unknown
Altitude
Unknown
Speed
Unknown
Apparent Right ascension
Unknown
Apparent Declination
Unknown
Sunlit
N/A
Visualization observer readout
Local Sidereal Time
18:35:19
Azimuth
Unknown
Elevation
Unknown
Doppler factor
Unknown
Orbital elements
Apogee altitude
36,093.662 km
Perigee altitude
36,076.337 km
Semi-major axis
42,463.137 km
Eccentricity
0.0002
Inclination
11.1937°
RAAN
40.1306°
Arg. of periapsis
172.7757°
True anomaly
19.03662°
Mean anomaly
19.029°
Eccentric anomaly
19.03281°
Mean motion
0.24804 °/min
Orbital period
1,451.37 mins
BSTAR
0
Loading maneuver chart data...
Computing Atmospheric mass density...
Loading historical data...
Loading historical data...
Loading historical data...
Loading historical data...
Loading historical data...
Loading historical data...
Loading historical data...
Other satellites on launch #94 in the year 2021 (2021-10-24 UTC)

Documentation

Showing up to 5 results
|